RH
16 19 17 16 16 12 9 9 12 18 21 33 51 56 28 23 47 90 99 89 69 59 62 65 71 80 77 73 71 64 59 50 46 43 36 30 23 18 12 10 12 11 15 26
21 15 19 18 17 17 16 14 9 9 13 15 15 16 30 56 46 26 22 31 40 45 52 54 53 46 45 49 42 33 32 25 24 19 15 12 10 10 10 13 18 21 14 10
74 35 16 20 19 19 18 18 18 16 10 8 10 13 14 13 14 24 44 48 39 34 32 29 28 29 26 21 18 17 18 16 17 18 18 17 15 16 16 11 6 5 4 6
54 73 47 14 19 20 20 20 20 19 19 18 16 10 7 9 12 13 12 12 12 14 15 15 15 16 18 19 18 18 16 14 12 9 7 6 5 4 5 6 8 10 11 13
22 52 70 63 13 19 20 21 21 23 23 24 21 19 18 16 12 9 7 7 7 7 7 7 7 7 6 6 5 5 5 4 4 4 5 6 8 10 11 13 16 19 22 20
20 24 52 64 67 19 17 20 21 21 23 24 24 24 23 22 20 19 18 17 16 14 12 11 11 11 11 12 11 10 10 10 10 10 10 11 14 17 20 21 20 15 14 11
26 25 29 52 58 69 44 12 17 19 20 22 24 25 25 25 24 23 22 22 22 22 21 21 21 20 20 20 20 19 19 19 19 20 19 20 18 15 11 10 10 11 11 11
40 28 30 33 55 55 64 69 27 11 14 19 21 22 23 24 24 24 23 23 20 21 21 23 26 28 27 28 28 28 28 27 26 25 24 19 14 15 14 13 12 11 12 13
49 46 33 34 35 55 54 54 67 65 23 9 10 15 20 21 22 23 24 25 23 22 22 21 20 17 17 17 19 19 20 20 20 19 20 21 19 19 18 18 16 15 15 12
52 54 50 39 35 38 52 56 50 60 68 65 50 19 10 9 13 16 20 21 21 23 23 24 22 21 21 21 19 15 13 13 14 14 15 17 16 16 15 13 12 10 8 8
58 55 56 53 43 36 40 43 59 54 49 59 66 71 72 63 46 26 10 10 10 13 15 17 19 19 17 18 17 15 14 13 10 8 7 7 7 7 9 12 11 12 15 23
73 66 64 59 57 43 39 43 35 56 66 56 52 53 60 68 68 66 61 64 61 40 39 24 13 11 10 10 11 11 22 33 33 27 26 17 24 42 42 41 42 38 36 34
73 74 74 68 63 52 45 43 49 48 69 80 69 64 60 57 57 56 62 65 68 70 68 70 69 64 58 47 48 54 57 58 53 51 53 53 48 44 39 37 35 32 28 26
65 69 69 70 69 54 42 49 48 52 45 45 50 57 66 73 69 56 55 53 57 66 67 61 65 68 67 65 62 55 54 55 52 48 46 44 42 39 38 37 34 32 31 28
62 73 70 68 64 64 52 50 53 44 46 50 53 59 68 83 90 76 67 60 58 55 54 55 54 58 58 59 56 55 51 52 53 51 46 42 43 47 49 47 43 44 43 37
62 68 70 68 63 58 55 57 62 57 51 52 51 57 64 72 71 72 94 88 84 71 65 62 59 59 48 48 52 51 49 50 48 45 49 59 63 69 66 59 59 58 48 40
83 70 73 72 72 64 58 52 57 58 58 57 52 57 68 74 86 80 74 85 87 76 71 70 66 64 62 60 62 63 73 78 68 60 64 72 72 61 42 40 33 22 20 19
94 85 76 75 74 70 62 62 59 56 58 58 60 67 69 72 76 84 89 87 87 85 79 78 81 86 88 86 87 85 88 82 78 77 68 54 46 39 37 32 26 22 18 16
100 94 81 75 77 78 68 59 61 65 65 62 70 80 76 82 85 89 87 84 86 88 94 94 92 89 82 66 61 55 57 62 66 56 49 35 26 22 20 18 17 15 14 13
98 100 87 80 87 78 71 64 63 63 70 65 73 93 89 84 86 89 90 85 85 79 85 86 84 80 71 58 54 49 36 34 32 31 30 28 27 24 21 18 17 15 14 13
100 97 98 91 90 83 76 68 67 62 67 73 82 96 98 98 92 94 93 89 88 83 83 87 79 75 68 64 59 51 47 46 47 44 43 39 34 27 22 19 18 15 13 12
100 99 100 97 90 83 78 71 74 77 73 79 90 98 100 100 99 98 91 91 90 90 81 78 76 79 83 80 73 66 62 57 54 50 45 38 32 28 24 19 15 12 10 9
100 100 100 90 86 85 78 84 91 92 92 89 94 96 100 100 100 99 99 94 88 86 83 80 84 80 82 77 73 69 64 58 52 47 42 37 31 25 20 15 10 8 7 6
100 100 94 94 95 100 100 100 100 100 99 96 92 89 92 98 99 99 100 98 92 84 87 88 83 80 70 62 60 56 53 48 44 41 39 34 28 22 10 6 5 4 3 3
100 100 100 98 100 100 100 100 100 99 99 94 90 90 89 91 88 85 85 84 77 75 81 77 74 69 65 61 57 54 50 49 48 42 36 30 22 14 8 4 3 3 3 3
100 100 100 100 100 100 100 100 100 97 93 91 88 88 85 82 76 69 70 65 70 84 87 79 70 67 64 58 54 55 56 50 45 36 25 18 10 6 4 3 3 3 3 4
91 100 100 100 100 100 100 98 95 93 94 94 89 84 91 80 71 60 65 73 94 94 80 75 69 58 55 64 60 54 49 41 29 20 13 7 5 4 3 3 3 4 4 4
Wind_Speed
22 24 26 29 32 34 36 34 35 37 39 40 37 36 35 32 32 32 28 27 27 24 20 19 16 17 19 21 21 21 20 20 17 17 14 12 12 13 14 12 9 10 9 9
17 19 21 23 26 29 31 33 33 31 31 32 33 35 36 34 32 31 28 27 26 24 22 21 20 20 20 20 21 20 19 18 16 14 14 14 13 12 11 10 9 8 8 9
16 15 15 17 20 22 25 27 29 31 30 28 25 26 28 29 30 30 29 27 26 24 23 22 20 19 19 18 18 17 17 16 15 13 13 11 10 9 8 8 9 7 5 6
16 13 13 11 13 16 18 20 23 26 27 27 26 26 24 22 21 22 22 21 20 20 19 19 18 17 16 14 14 13 13 12 11 10 8 7 6 6 6 4 4 5 4 11
15 15 11 11 9 10 12 14 16 18 21 23 23 24 23 22 21 21 20 20 18 16 14 13 12 12 12 12 12 11 11 9 9 9 9 8 6 5 4 5 6 7 7 17
18 15 14 10 10 8 7 8 10 11 13 15 16 18 20 20 20 19 19 18 17 16 15 14 13 12 12 11 10 9 8 7 6 5 5 5 4 5 6 8 9 9 12 17
16 17 14 14 11 9 8 6 5 6 7 7 8 10 12 14 15 16 17 16 15 15 14 14 13 12 11 10 9 8 6 5 4 2 2 3 5 5 6 10 10 10 15 19
14 15 16 13 13 12 10 8 7 6 5 6 6 4 4 5 7 8 10 11 11 11 10 10 10 9 8 8 7 5 4 2 2 2 5 7 7 10 12 15 19 20 21 24
16 15 16 17 14 13 12 12 10 8 8 7 7 9 7 6 3 2 1 1 2 2 2 3 3 4 4 5 5 4 5 7 8 8 9 12 16 17 19 21 24 25 28 30
21 18 17 17 17 16 14 12 13 12 10 9 8 9 11 12 12 11 7 7 6 7 6 5 6 6 6 7 9 9 10 12 14 14 15 19 21 23 25 28 28 30 31 31
20 21 20 19 19 19 19 17 13 14 13 13 13 12 11 11 13 14 15 16 15 14 13 13 13 14 14 15 16 18 19 20 20 21 20 22 23 23 24 22 21 23 23 26
23 21 22 23 22 21 21 19 18 17 17 15 15 15 16 16 16 15 14 12 14 12 14 16 18 19 20 21 20 22 21 21 15 15 16 16 15 20 23 22 21 23 25 26
28 26 25 23 26 25 23 23 21 19 17 20 21 19 19 18 20 21 19 19 18 17 16 16 18 17 15 16 16 17 23 22 16 15 22 19 22 28 26 27 28 30 33 34
33 31 30 27 25 27 28 25 24 25 26 25 23 24 25 26 22 21 21 22 22 22 21 19 17 17 18 17 16 20 28 25 22 21 25 25 31 34 35 34 35 36 38 40
35 34 33 32 29 27 28 31 29 29 30 30 30 29 30 33 31 24 23 23 23 23 24 23 22 22 25 21 19 24 33 35 34 33 32 34 35 37 40 42 43 45 46 47
39 39 39 37 34 32 32 31 31 32 33 32 31 31 30 30 32 32 32 31 29 29 28 28 26 29 33 31 28 31 34 38 41 43 43 42 42 43 44 46 48 50 51 54
41 44 44 43 40 38 37 36 35 36 35 34 34 30 29 32 33 34 35 36 36 36 36 33 33 33 35 35 35 38 39 41 46 50 52 53 52 48 49 51 53 54 54 55
46 46 48 48 46 44 43 42 41 41 40 38 38 33 31 33 35 37 39 40 40 40 40 39 38 39 41 43 40 41 42 45 47 47 46 45 47 50 53 55 57 59 60 60
53 52 51 51 51 48 47 48 47 45 45 44 39 38 35 34 37 39 40 41 40 43 42 41 38 35 38 37 36 38 44 44 43 44 46 48 50 52 54 55 56 58 59 60
59 56 55 53 50 51 52 51 50 50 47 47 43 39 41 41 38 40 42 43 43 44 43 42 42 40 40 41 44 47 47 46 46 47 50 53 56 56 56 56 56 57 59 60
59 54 53 55 53 52 54 55 53 52 50 45 41 41 44 44 46 44 45 47 47 49 49 47 48 44 43 45 50 51 53 55 56 57 57 57 58 57 56 57 60 60 61 62
52 53 53 54 55 55 55 57 52 47 47 44 40 39 42 46 49 49 51 51 52 53 52 53 52 48 53 57 57 60 62 64 64 63 61 59 59 61 63 63 61 61 60 61
51 52 53 54 53 55 55 51 47 45 43 43 42 42 43 44 47 50 51 54 55 56 56 55 53 56 57 60 62 63 64 64 65 64 64 62 60 62 64 63 63 63 63 64
47 50 51 51 52 51 49 48 46 47 46 46 47 48 48 48 48 50 51 53 56 58 57 53 57 59 63 63 63 64 65 67 68 67 67 66 63 63 60 58 59 60 60 60
44 44 47 48 50 51 50 50 50 51 51 51 51 52 53 53 54 55 56 57 58 57 55 58 60 62 64 65 66 68 70 70 68 68 68 68 68 66 61 58 57 58 59 58
50 50 51 52 52 53 54 54 55 55 55 55 57 57 58 58 59 59 61 61 60 57 59 64 67 69 71 73 74 73 71 72 73 72 70 69 67 65 63 59 58 58 57 55
53 52 52 53 55 55 56 57 57 58 57 58 59 60 62 63 64 63 63 60 57 62 66 69 73 76 77 73 70 71 73 72 72 72 69 66 64 63 62 59 56 57 56 57
Wind_Direction
22 27 32 41 44 44 43 46 48 50 51 54 55 60 65 72 76 81 89 98 105 111 115 116 118 119 120 125 128 135 140 147 154 162 168 181 197 206 216 220 227 236 238 243
19 20 27 34 42 47 49 49 48 50 53 55 56 56 59 65 73 79 84 90 95 99 104 108 110 111 115 121 126 131 137 142 151 166 178 187 190 190 199 221 223 237 244 260
3 17 18 26 34 42 48 52 55 55 52 53 57 61 62 62 63 68 76 83 89 93 97 100 104 107 112 117 122 129 135 142 150 156 161 171 183 195 214 233 244 242 230 257
3 1 9 10 24 32 39 48 53 57 62 58 55 55 60 65 68 70 70 71 76 83 89 95 98 102 107 113 120 130 140 151 160 168 179 192 192 180 170 174 179 228 239 264
356 355 353 4 357 18 28 36 44 54 58 65 66 63 60 60 62 66 70 72 73 72 72 75 83 91 99 105 109 113 120 126 131 136 140 149 161 160 179 215 225 245 246 271
337 350 347 338 354 343 358 16 25 35 47 58 63 69 69 68 67 67 68 68 68 71 72 74 77 80 84 87 94 104 111 118 126 137 163 180 206 204 228 251 266 286 285 292
323 330 340 340 324 334 340 325 350 5 14 32 49 66 73 73 73 68 67 68 70 73 76 79 80 81 83 85 87 91 93 97 108 124 168 223 261 260 286 294 304 303 303 307
308 312 318 324 330 320 309 330 313 301 320 329 337 357 35 69 79 82 78 74 71 64 61 61 62 63 60 58 51 44 40 25 350 318 308 294 278 282 284 298 294 294 299 301
293 297 301 308 308 316 316 305 305 322 306 293 303 309 312 316 313 326 22 89 91 83 84 63 47 36 16 2 346 332 312 304 294 287 290 287 284 288 286 290 288 293 295 297
289 288 289 292 297 295 298 307 301 297 302 314 316 298 293 296 296 297 287 284 286 280 279 277 280 279 271 270 267 274 275 278 278 280 282 281 281 283 286 288 290 293 295 297
281 284 282 285 285 286 287 291 292 293 289 288 293 298 301 308 305 299 293 291 286 281 278 276 274 275 275 273 276 276 279 276 280 286 288 279 284 289 288 293 296 296 300 300
274 276 281 278 280 278 276 279 285 288 281 283 283 285 291 295 297 298 300 301 305 298 298 290 285 283 284 283 280 282 282 285 293 297 291 292 288 287 288 292 299 298 302 304
273 278 280 278 274 272 274 271 273 274 280 277 281 282 283 285 286 289 287 286 288 287 294 292 291 294 293 285 287 285 281 291 294 298 296 303 300 294 298 299 297 300 303 303
275 274 277 278 276 270 269 271 269 270 271 271 275 283 287 284 278 275 277 281 282 281 281 281 281 283 278 274 274 274 279 284 294 295 297 302 299 299 301 303 301 300 301 300
268 272 272 275 277 273 268 272 269 268 268 271 271 274 274 273 270 261 261 262 268 271 275 274 273 276 277 271 269 269 273 288 297 296 294 293 292 293 296 299 298 301 304 305
265 270 270 270 272 273 270 270 270 269 271 271 268 270 270 271 268 268 263 259 258 260 260 261 263 266 270 274 272 269 272 278 282 286 290 293 292 293 294 296 295 296 299 299
266 267 267 267 268 269 270 273 274 274 274 273 272 272 269 269 267 265 265 267 265 265 264 265 268 268 271 273 277 278 284 285 281 280 284 288 292 298 300 301 301 301 301 300
264 268 267 267 268 268 271 273 275 276 273 273 273 268 262 263 263 266 269 268 269 267 270 273 275 278 279 280 283 283 281 279 281 285 292 296 296 297 299 300 301 302 303 303
263 265 264 264 264 266 269 272 273 274 274 273 272 268 263 260 261 263 266 268 270 270 272 273 277 281 284 289 288 288 288 289 292 292 294 294 295 297 298 299 300 300 301 301
262 262 262 261 262 264 268 269 271 275 276 274 272 267 262 262 262 261 263 265 268 271 271 273 277 281 284 287 285 283 288 294 291 288 292 297 303 303 302 300 301 301 300 300
254 255 260 261 262 264 268 270 272 273 274 273 271 266 264 261 263 263 264 268 270 272 274 278 280 283 285 284 281 285 288 291 296 300 302 301 299 298 298 299 299 299 299 299
252 256 258 262 265 268 270 270 273 275 274 271 269 266 262 262 263 263 265 268 270 274 279 280 281 284 282 282 284 284 286 290 295 297 298 299 298 297 298 298 298 299 300 300
251 254 258 261 264 266 267 268 271 273 273 271 271 270 270 268 266 266 268 270 273 274 277 281 287 284 284 284 285 288 291 293 295 297 299 296 295 296 296 297 299 301 300 298
253 256 259 260 259 257 261 266 270 271 272 272 271 272 274 275 275 275 275 276 277 279 283 288 286 284 285 288 290 292 295 296 297 298 298 297 297 297 298 300 301 300 298 297
249 252 254 255 258 261 265 268 270 272 273 273 273 273 274 276 277 278 281 283 285 289 290 286 285 286 288 291 294 296 296 296 295 294 293 293 295 297 299 298 297 294 295 296
250 253 257 259 263 266 267 267 268 269 271 273 275 276 277 278 279 282 283 285 290 289 284 284 286 287 288 290 291 291 291 290 291 292 293 294 294 295 295 295 295 294 295 296
253 254 258 260 262 264 266 268 269 270 272 274 275 277 278 281 282 284 287 287 282 280 282 284 286 287 288 288 287 286 287 288 289 290 292 293 293 293 294 294 292 292 294 296